• In Uzbekistan
  • List of Countries
  • For 7 days
  • Water Temperature
  • Satellite Maps
  • Weather Map
  • Weather Widgets
  • user-avatar
    Login

    Hourly Weather Dinagepoor

    Today, 24 May, Friday

    Time Temperature Precipitation Wind Pressure Humidity
    00:00 +28°C° 0 mm 5 mps 752 mmHg 85%
    01:00 +27°C° 0.8 mm 5 mps 751 mmHg 86%
    02:00 +27°C° 0.8 mm 4 mps 751 mmHg 87%
    03:00 +27°C° 0.8 mm 4 mps 751 mmHg 88%
    04:00 +27°C° 2 mm 5 mps 751 mmHg 88%
    05:00 +26°C° 2 mm 5 mps 751 mmHg 88%
    06:00 +27°C° 0 mm 4 mps 751 mmHg 92%
    07:00 +27°C° 0.7 mm 5 mps 752 mmHg 90%
    08:00 +28°C° 0.7 mm 5 mps 752 mmHg 89%
    09:00 +28°C° 0.7 mm 5 mps 752 mmHg 87%
    10:00 +29°C° 1 mm 5 mps 752 mmHg 84%
    11:00 +30°C° 1 mm 5 mps 752 mmHg 81%
    12:00 +32°C° 0 mm 6 mps 752 mmHg 77%
    13:00 +33°C° 0.2 mm 6 mps 751 mmHg 75%
    14:00 +34°C° 0.2 mm 5 mps 750 mmHg 73%
    15:00 +35°C° 0.2 mm 5 mps 749 mmHg 71%
    16:00 +34°C° 0.7 mm 5 mps 749 mmHg 73%
    17:00 +34°C° 0.7 mm 5 mps 748 mmHg 75%
    18:00 +33°C° 0.7 mm 5 mps 748 mmHg 76%
    19:00 +32°C° 2.8 mm 5 mps 748 mmHg 80%
    20:00 +30°C° 2.8 mm 5 mps 749 mmHg 84%
    21:00 +28°C° 2.8 mm 5 mps 749 mmHg 88%
    22:00 +28°C° 3.4 mm 4 mps 749 mmHg 89%
    23:00 +28°C° 3.4 mm 4 mps 749 mmHg 90%

    Tomorrow, 25 May, Saturday

    Time Temperature Precipitation Wind Pressure Humidity
    00:00 +28°C° 3.4 mm 4 mps 749 mmHg 91%
    01:00 +28°C° 1.2 mm 4 mps 749 mmHg 91%
    02:00 +28°C° 1.2 mm 4 mps 748 mmHg 92%
    03:00 +28°C° 1.2 mm 3 mps 748 mmHg 93%
    04:00 +28°C° 0.9 mm 3 mps 748 mmHg 93%
    05:00 +28°C° 0.9 mm 3 mps 748 mmHg 92%
    06:00 +27°C° 0.9 mm 3 mps 748 mmHg 92%
    07:00 +28°C° 1.3 mm 3 mps 748 mmHg 90%
    08:00 +29°C° 1.3 mm 4 mps 749 mmHg 87%
    09:00 +30°C° 1.3 mm 4 mps 749 mmHg 85%
    10:00 +30°C° 0.5 mm 4 mps 749 mmHg 84%
    11:00 +32°C° 0.5 mm 4 mps 749 mmHg 83%
    12:00 +32°C° 0.5 mm 4 mps 749 mmHg 82%
    13:00 +34°C° 0 mm 4 mps 748 mmHg 78%
    14:00 +35°C° 0 mm 3 mps 747 mmHg 74%
    15:00 +36°C° 0 mm 3 mps 747 mmHg 70%
    16:00 +36°C° 0.2 mm 3 mps 746 mmHg 74%
    17:00 +35°C° 0.2 mm 4 mps 746 mmHg 77%
    18:00 +34°C° 0.2 mm 4 mps 745 mmHg 81%
    19:00 +33°C° 0.2 mm 5 mps 746 mmHg 81%
    20:00 +33°C° 0.2 mm 5 mps 747 mmHg 82%
    21:00 +32°C° 0.2 mm 6 mps 748 mmHg 83%
    22:00 +32°C° 0 mm 5 mps 748 mmHg 84%
    23:00 +32°C° 0 mm 4 mps 748 mmHg 85%

    Day after tomorrow, 26 May, Sunday

    Time Temperature Precipitation Wind Pressure Humidity
    00:00 +30°C° 0 mm 3 mps 748 mmHg 86%
    01:00 +30°C° 0 mm 3 mps 748 mmHg 88%
    02:00 +30°C° 0 mm 3 mps 747 mmHg 90%
    03:00 +29°C° 0 mm 3 mps 747 mmHg 92%
    04:00 +29°C° 0.4 mm 4 mps 747 mmHg 91%
    05:00 +29°C° 0.4 mm 4 mps 747 mmHg 91%
    06:00 +29°C° 0.4 mm 4 mps 748 mmHg 91%
    07:00 +30°C° 0.2 mm 4 mps 748 mmHg 87%
    08:00 +32°C° 0.2 mm 4 mps 749 mmHg 83%
    09:00 +33°C° 0.2 mm 4 mps 749 mmHg 79%
    10:00 +35°C° 0 mm 3 mps 749 mmHg 73%
    11:00 +36°C° 0 mm 3 mps 749 mmHg 68%
    12:00 +37°C° 0 mm 2 mps 749 mmHg 62%
    13:00 +39°C° 0 mm 2 mps 748 mmHg 53%
    14:00 +40°C° 0 mm 2 mps 747 mmHg 44%
    15:00 +42°C° 0 mm 2 mps 747 mmHg 36%
    16:00 +41°C° 0 mm 2 mps 747 mmHg 38%
    17:00 +40°C° 0 mm 2 mps 746 mmHg 41%
    18:00 +39°C° 0 mm 3 mps 746 mmHg 44%
    19:00 +38°C° 0 mm 3 mps 747 mmHg 55%
    20:00 +36°C° 0 mm 4 mps 748 mmHg 67%
    21:00 +34°C° 0 mm 4 mps 748 mmHg 78%
    22:00 +34°C° 0.4 mm 4 mps 748 mmHg 79%
    23:00 +33°C° 0.4 mm 5 mps 749 mmHg 81%

    27 May, Monday

    Time Temperature Precipitation Wind Pressure Humidity
    00:00 +33°C° 0.4 mm 5 mps 749 mmHg 82%
    01:00 +32°C° 0.2 mm 5 mps 748 mmHg 84%
    02:00 +32°C° 0.2 mm 5 mps 748 mmHg 86%
    03:00 +30°C° 0.2 mm 5 mps 748 mmHg 88%
    04:00 +30°C° 0.4 mm 4 mps 748 mmHg 88%
    05:00 +30°C° 0.4 mm 4 mps 748 mmHg 88%
    06:00 +30°C° 0.4 mm 4 mps 748 mmHg 88%
    07:00 +32°C° 0.1 mm 5 mps 749 mmHg 86%
    08:00 +32°C° 0.1 mm 5 mps 749 mmHg 84%
    09:00 +32°C° 0.1 mm 5 mps 750 mmHg 82%
    10:00 +33°C° 0.1 mm 5 mps 750 mmHg 79%
    11:00 +34°C° 0.1 mm 5 mps 750 mmHg 75%
    12:00 +35°C° 0.1 mm 5 mps 750 mmHg 71%
    13:00 +36°C° 0 mm 4 mps 749 mmHg 66%
    14:00 +38°C° 0 mm 4 mps 748 mmHg 61%
    15:00 +39°C° 0 mm 3 mps 747 mmHg 55%
    16:00 +38°C° 0 mm 3 mps 747 mmHg 57%
    17:00 +38°C° 0 mm 3 mps 746 mmHg 59%
    18:00 +38°C° 0 mm 4 mps 746 mmHg 60%
    19:00 +37°C° 0 mm 4 mps 747 mmHg 65%
    20:00 +35°C° 0 mm 4 mps 748 mmHg 70%
    21:00 +34°C° 0 mm 5 mps 748 mmHg 75%
    22:00 +34°C° 0.1 mm 5 mps 748 mmHg 77%
    23:00 +33°C° 0.1 mm 5 mps 749 mmHg 79%

    28 May, Tuesday

    Time Temperature Precipitation Wind Pressure Humidity
    00:00 +32°C° 0.1 mm 5 mps 749 mmHg 80%
    01:00 +32°C° 0.1 mm 5 mps 748 mmHg 82%
    02:00 +30°C° 0.1 mm 4 mps 748 mmHg 84%
    03:00 +30°C° 0.1 mm 4 mps 748 mmHg 86%
    04:00 +30°C° 1 mm 4 mps 748 mmHg 87%
    05:00 +30°C° 1 mm 4 mps 748 mmHg 88%
    06:00 +30°C° 1 mm 4 mps 749 mmHg 88%
    07:00 +32°C° 0.1 mm 4 mps 749 mmHg 85%
    08:00 +32°C° 0.1 mm 5 mps 750 mmHg 82%
    09:00 +33°C° 0.1 mm 5 mps 751 mmHg 79%
    10:00 +34°C° 0.1 mm 5 mps 750 mmHg 76%
    11:00 +35°C° 0.1 mm 4 mps 750 mmHg 73%
    12:00 +35°C° 0.1 mm 4 mps 750 mmHg 70%
    13:00 +36°C° 0 mm 4 mps 749 mmHg 66%
    14:00 +37°C° 0 mm 4 mps 748 mmHg 62%
    15:00 +38°C° 0 mm 4 mps 747 mmHg 58%
    16:00 +38°C° 0 mm 4 mps 747 mmHg 61%
    17:00 +37°C° 0 mm 4 mps 747 mmHg 63%
    18:00 +37°C° 0 mm 4 mps 746 mmHg 66%
    19:00 +36°C° 1.2 mm 4 mps 747 mmHg 70%
    20:00 +35°C° 1.2 mm 3 mps 748 mmHg 74%
    21:00 +34°C° 1.2 mm 2 mps 748 mmHg 78%
    22:00 +32°C° 0.1 mm 2 mps 749 mmHg 78%
    23:00 +33°C° 0.1 mm 3 mps 749 mmHg 78%

    29 May, Wednesday

    Time Temperature Precipitation Wind Pressure Humidity
    00:00 +33°C° 0.1 mm 3 mps 749 mmHg 78%
    01:00 +31°C° 0.3 mm 3 mps 748 mmHg 81%
    02:00 +32°C° 0.3 mm 4 mps 748 mmHg 84%
    03:00 +30°C° 0.3 mm 4 mps 748 mmHg 87%
    04:00 +30°C° 1.3 mm 4 mps 748 mmHg 88%
    05:00 +29°C° 1.3 mm 4 mps 748 mmHg 89%
    06:00 +29°C° 1.3 mm 4 mps 749 mmHg 90%
    07:00 +30°C° 0.5 mm 4 mps 749 mmHg 86%
    08:00 +32°C° 0.5 mm 4 mps 750 mmHg 82%
    09:00 +34°C° 0.5 mm 4 mps 751 mmHg 78%
    10:00 +35°C° 0 mm 4 mps 750 mmHg 74%
    11:00 +36°C° 0 mm 4 mps 750 mmHg 70%
    12:00 +37°C° 0 mm 4 mps 750 mmHg 66%
    13:00 +37°C° 0.2 mm 4 mps 749 mmHg 63%
    14:00 +38°C° 0.2 mm 4 mps 748 mmHg 60%
    15:00 +40°C° 0.2 mm 4 mps 747 mmHg 57%
    16:00 +38°C° 0 mm 4 mps 747 mmHg 58%
    17:00 +38°C° 0 mm 4 mps 746 mmHg 59%
    18:00 +38°C° 0 mm 3 mps 746 mmHg 60%
    19:00 +37°C° 0 mm 4 mps 746 mmHg 64%
    20:00 +36°C° 0 mm 5 mps 747 mmHg 68%
    21:00 +35°C° 0 mm 5 mps 747 mmHg 72%
    22:00 +33°C° 6.4 mm 5 mps 748 mmHg 78%
    23:00 +32°C° 6.4 mm 4 mps 748 mmHg 84%
    Show more